Temperature
5 5 5 5 6 5 5 4 4 5 5 6 7 7 8 8 9 8 8 8 8 8 8 8 8 7 7 7 7 7 7 7 7 6 6 6 5 5 5 5 5 5 5 5
4 5 5 5 5 5 5 5 5 5 5 6 7 8 8 8 8 8 8 8 8 8 8 7 7 7 7 7 7 6 6 6 6 6 6 6 5 5 5 5 5 4 4 4
3 4 4 5 5 5 5 5 5 5 6 6 6 7 7 8 8 7 7 7 7 7 7 7 7 7 7 7 6 6 6 6 6 5 5 5 5 5 5 4 4 4 4 4
3 4 5 6 7 6 5 6 5 6 6 6 7 7 8 8 7 7 7 7 7 6 6 6 6 6 6 6 6 6 6 6 5 5 5 5 5 4 4 4 4 4 4 4
3 3 4 5 6 6 5 6 5 5 5 6 7 6 6 7 7 7 6 6 6 6 6 6 6 6 6 6 5 5 5 5 5 5 5 4 4 4 4 4 4 3 3 3
3 4 5 6 7 7 6 5 6 6 5 6 6 4 5 7 6 6 6 6 5 5 5 5 5 5 5 5 5 5 5 5 5 4 4 4 4 4 3 3 3 3 3 3
3 3 4 5 6 7 6 6 7 7 6 6 5 5 6 6 6 5 5 5 5 5 5 5 5 4 4 5 5 5 4 4 4 4 4 4 3 3 3 3 3 3 3 3
2 3 4 6 5 5 6 7 7 7 6 6 6 6 6 5 5 5 5 5 4 4 4 4 4 4 4 4 4 4 4 4 4 4 3 3 3 3 3 2 2 2 2 2
3 4 6 6 6 7 7 6 6 6 6 5 5 5 5 5 4 4 4 4 4 4 4 4 4 4 4 4 4 3 3 3 3 3 3 3 3 2 2 2 2 2 2 2
2 3 5 6 6 6 6 6 6 5 5 5 4 4 4 4 4 4 3 3 3 3 3 4 4 3 3 3 3 3 3 3 3 3 3 2 2 2 2 2 2 1 1 1
2 3 4 5 6 6 5 5 5 5 4 4 4 4 4 3 3 3 3 3 3 3 3 3 3 3 3 3 3 3 3 3 3 2 2 2 2 2 1 1 1 1 1 1
3 4 3 5 5 5 5 4 4 4 4 4 3 3 3 3 3 3 3 3 2 2 2 3 3 3 3 3 2 2 2 2 2 2 2 1 1 1 1 1 1 1 1 0
5 5 5 4 4 4 4 4 4 3 3 3 3 3 2 2 2 2 2 2 2 2 2 2 2 2 2 2 2 2 2 2 2 2 2 1 1 1 1 1 1 1 0 0
4 4 3 3 3 3 3 3 3 3 3 2 2 2 2 2 2 2 2 2 2 2 2 2 2 2 2 2 2 2 2 2 2 1 1 1 1 0 0 0 0 0 0 0
3 3 3 3 3 2 2 2 2 2 2 2 2 2 1 1 1 1 2 1 1 1 1 1 1 2 1 1 1 1 1 1 1 1 1 1 0 -0 -0 -0 -0 -0 -0 -0
2 2 2 2 2 2 1 1 1 1 1 1 1 1 1 1 1 1 1 1 1 1 1 1 1 1 1 1 1 1 1 1 1 1 0 0 -0 -0 -1 -1 -1 -1 -1 -0
1 1 1 1 1 1 1 0 0 1 1 1 1 1 1 1 1 1 1 1 0 1 1 0 1 1 1 1 1 1 1 1 0 0 -0 -0 -0 -1 -1 -1 -1 -1 -1 -1
1 1 0 0 0 0 0 0 0 0 0 0 0 0 0 0 0 0 0 0 0 1 1 0 0 0 0 0 0 0 0 0 -0 -0 -0 -1 -1 -1 -1 -1 -1 -1 -1 -1
0 0 0 0 0 -0 -0 -0 -0 -0 -0 -0 -0 -0 -0 -0 -0 -0 -0 -0 -0 -0 0 0 -0 -0 -0 -0 -0 -0 -0 -0 -0 -1 -1 -1 -1 -1 -1 -2 -2 -2 -2 -2
0 0 0 -0 -0 -0 -0 -0 -1 -0 -0 -1 -1 -1 -1 -1 -1 -1 -1 -1 -1 -1 -0 -0 -1 -1 -1 -1 -1 -1 -1 -1 -1 -1 -1 -1 -1 -2 -2 -2 -2 -2 -2 -2
0 -0 -0 -0 -0 -0 -1 -1 -1 -1 -1 -1 -1 -1 -1 -1 -1 -1 -1 -1 -1 -1 -1 -1 -1 -1 -1 -1 -1 -1 -1 -1 -1 -1 -1 -2 -2 -2 -2 -2 -2 -2 -2 -2
-0 -0 -1 -1 -1 -1 -1 -1 -1 -1 -1 -1 -2 -2 -2 -2 -1 -2 -2 -2 -1 -1 -1 -1 -1 -1 -2 -2 -2 -2 -2 -2 -2 -2 -2 -2 -2 -2 -2 -2 -2 -2 -2 -2
-1 -1 -1 -1 -1 -1 -1 -1 -1 -1 -2 -2 -2 -2 -2 -2 -2 -2 -2 -2 -2 -2 -2 -2 -2 -2 -2 -2 -2 -2 -2 -2 -2 -2 -2 -2 -2 -2 -2 -2 -2 -2 -2 -2
-1 -1 -1 -1 -2 -2 -2 -1 -2 -2 -2 -2 -2 -2 -2 -2 -2 -2 -2 -2 -2 -2 -2 -2 -2 -2 -2 -2 -2 -2 -2 -2 -2 -2 -2 -2 -2 -2 -3 -3 -3 -3 -3 -3
-2 -2 -2 -2 -2 -2 -2 -2 -2 -2 -2 -2 -2 -2 -3 -3 -3 -3 -3 -3 -3 -3 -3 -2 -2 -2 -3 -3 -3 -3 -3 -3 -3 -3 -3 -3 -3 -3 -3 -3 -3 -3 -3 -3
-2 -2 -2 -2 -2 -2 -2 -2 -3 -3 -3 -3 -3 -3 -3 -3 -3 -3 -3 -3 -3 -3 -3 -3 -3 -3 -3 -3 -3 -3 -3 -3 -3 -3 -3 -3 -3 -3 -3 -3 -3 -3 -3 -3
-3 -3 -3 -3 -2 -2 -3 -3 -3 -3 -3 -3 -3 -3 -3 -3 -3 -3 -3 -3 -3 -3 -3 -3 -3 -3 -3 -3 -3 -3 -3 -3 -3 -3 -3 -3 -3 -3 -4 -4 -4 -4 -4 -4
Wind_Speed
8 8 6 8 10 8 9 9 9 8 8 9 6 5 5 4 4 3 3 4 4 4 5 5 5 6 6 6 6 5 5 6 7 7 6 6 6 6 6 6 6 6 5 5
6 6 6 9 12 12 11 10 12 11 12 8 6 4 4 4 4 4 4 5 5 5 5 6 6 7 7 7 6 5 6 8 7 6 6 6 6 6 6 6 6 5 6 6
5 5 5 8 9 10 7 7 8 12 10 4 3 4 4 4 4 4 5 5 6 6 6 7 7 7 7 8 6 6 7 7 6 6 7 7 6 6 6 7 6 6 6 6
3 3 6 7 3 5 6 6 8 7 5 4 5 5 4 4 4 4 5 6 6 6 7 7 7 7 7 6 5 6 7 7 7 6 7 7 6 7 7 6 6 6 6 6
2 4 8 8 4 4 5 4 5 7 6 5 3 1 3 4 3 4 5 6 6 7 7 7 8 7 6 6 6 6 8 8 8 7 7 7 7 8 6 5 6 6 5 6
4 4 7 6 2 1 3 4 3 3 4 3 1 2 5 4 4 6 6 6 7 7 7 8 8 7 6 7 7 8 9 9 8 7 7 8 8 7 5 5 6 6 6 6
8 7 9 7 2 3 2 5 2 2 3 3 4 6 6 6 6 6 7 8 8 8 8 8 8 6 7 7 8 9 8 7 7 7 8 8 7 6 5 5 5 5 6 6
7 7 10 4 5 5 6 3 2 3 4 5 6 7 7 7 8 8 8 8 8 8 9 9 8 6 8 9 9 8 6 6 7 7 6 6 6 6 5 5 5 6 5 6
10 9 4 4 6 5 3 3 4 4 5 6 7 8 8 8 8 8 8 9 8 8 10 9 8 7 9 9 8 6 6 7 7 6 6 5 6 6 4 5 5 5 5 6
6 9 7 6 5 4 3 5 6 6 7 6 8 9 9 8 8 8 8 8 8 8 9 10 9 8 9 9 7 6 7 7 6 6 6 5 5 5 5 6 6 6 6 7
7 7 7 7 6 6 6 6 7 6 6 7 8 9 9 8 8 8 8 8 7 8 9 11 10 9 8 7 6 6 7 7 6 6 6 6 6 6 7 7 8 8 7 7
10 8 7 7 6 6 7 7 7 7 7 6 7 9 9 8 8 8 8 8 8 9 9 10 10 10 9 7 6 7 7 7 6 5 5 5 5 5 8 9 11 13 12 10
11 8 8 8 7 6 6 7 7 7 7 8 7 7 8 8 7 7 8 9 9 10 10 10 10 10 9 7 7 7 8 7 6 5 5 5 5 5 6 6 8 11 12 12
8 6 8 8 7 7 7 7 6 6 6 6 6 6 6 7 7 8 9 9 9 9 10 10 10 11 9 7 7 8 8 8 7 6 6 6 6 6 6 6 5 5 7 11
8 8 9 7 6 5 5 4 4 5 5 6 5 6 6 7 9 9 9 9 9 9 10 9 10 11 9 7 7 8 7 6 6 6 6 6 6 5 5 6 6 6 5 5
6 5 5 5 5 4 3 4 4 6 6 6 6 7 8 8 9 9 9 8 8 10 10 10 11 11 9 7 7 7 7 10 8 6 5 5 5 5 6 6 6 6 6 5
5 5 4 4 4 4 4 5 5 6 6 7 8 8 8 8 9 9 9 8 9 10 11 10 11 10 9 8 7 6 6 7 9 6 6 6 6 6 6 6 7 7 7 7
6 6 6 6 5 6 6 5 6 6 7 8 8 8 8 8 9 11 10 10 10 11 10 9 9 9 8 8 7 6 6 6 5 6 6 6 6 6 6 7 7 7 6 6
4 5 5 5 5 5 5 6 7 7 7 7 8 9 9 9 10 10 10 10 10 12 11 9 11 9 8 8 8 6 6 6 6 5 5 7 7 6 6 7 7 7 6 6
5 5 5 6 6 5 6 7 7 8 8 7 8 9 10 11 10 10 10 10 10 9 10 11 10 9 9 8 8 5 6 6 6 6 5 6 6 6 6 7 7 6 6 6
6 6 6 7 7 8 8 8 8 9 9 8 9 10 12 12 10 9 9 11 11 9 9 12 9 8 7 8 8 5 6 6 6 6 6 6 6 7 7 7 6 6 6 6
6 7 8 8 8 9 9 8 8 10 10 10 10 10 11 12 11 10 10 10 11 13 9 8 7 9 10 10 6 5 6 6 6 6 6 6 7 7 7 7 6 6 6 6
8 9 9 10 10 10 10 9 9 9 10 11 11 11 11 11 9 9 12 8 7 12 10 8 11 14 15 8 5 6 6 7 6 6 6 6 6 6 6 7 6 6 6 6
10 10 10 10 9 9 12 13 11 10 10 11 11 12 11 10 10 9 9 12 14 15 10 11 15 16 14 6 6 6 6 6 6 6 6 6 6 6 6 6 6 6 6 6
11 11 11 11 10 11 12 12 11 10 10 10 11 11 10 9 10 10 9 10 14 14 10 12 15 15 9 6 6 6 6 7 7 6 6 6 6 6 6 6 6 6 5 5
12 11 11 11 10 10 9 9 9 10 9 10 10 9 8 8 9 10 9 10 11 13 10 8 8 9 6 6 7 7 6 7 7 7 6 6 6 6 6 6 7 6 5 5
11 10 9 9 10 10 9 9 10 11 10 10 11 10 9 8 8 8 9 9 8 8 8 7 7 7 6 6 6 6 6 6 6 6 6 5 5 5 6 6 5 5 4 4
Wind_Direction
252 260 251 249 250 229 215 210 217 239 240 256 262 261 267 279 290 294 301 296 289 280 277 279 281 277 266 257 250 238 235 238 242 245 243 245 248 249 247 244 244 245 247 251
282 268 262 264 252 237 232 227 234 253 266 253 248 252 269 284 288 282 287 289 290 288 287 284 279 275 270 262 253 239 238 244 247 247 244 244 247 248 249 248 246 242 242 243
274 300 326 273 245 216 211 210 205 234 246 243 250 266 263 266 272 270 281 286 290 289 281 279 276 269 265 261 257 245 244 248 248 244 246 247 247 246 248 248 243 243 242 239
278 341 253 246 230 195 208 237 221 225 236 228 238 253 249 233 237 269 283 289 292 287 281 279 274 273 269 266 259 252 250 250 246 242 246 249 247 247 247 246 242 242 244 241
221 263 277 287 261 193 191 259 225 220 241 252 258 311 287 245 239 260 273 277 278 276 275 278 279 275 273 271 263 257 252 251 247 239 242 245 247 249 249 245 246 243 243 238
201 233 251 252 248 190 119 268 250 197 228 242 153 304 270 262 281 286 285 280 281 284 283 283 282 276 267 266 261 258 255 251 246 237 236 241 244 247 247 242 246 247 247 241
217 237 261 256 234 118 190 250 247 210 220 214 213 232 253 276 280 277 281 283 285 288 286 280 282 277 266 264 260 259 259 255 247 240 236 238 241 243 243 239 244 245 251 251
196 220 250 222 146 185 229 245 237 238 234 238 248 260 269 273 275 279 284 287 288 288 286 284 280 271 267 265 263 264 259 256 251 245 241 239 236 243 238 230 239 247 252 261
200 219 241 191 204 228 213 233 245 242 252 256 264 269 273 275 276 280 281 283 283 281 287 289 283 266 264 269 269 264 259 257 256 251 244 236 231 236 239 229 234 243 243 253
241 257 259 257 255 257 231 235 248 250 256 255 261 269 275 277 280 280 279 280 281 284 287 290 287 273 262 269 267 258 258 259 256 249 249 242 235 230 231 231 235 239 241 246
252 269 288 271 246 251 263 263 263 260 252 252 259 269 271 277 279 278 281 281 280 280 282 284 286 281 274 267 259 258 259 257 253 245 244 244 239 233 233 232 228 233 238 237
248 243 241 260 261 262 261 259 257 261 267 263 255 262 270 274 275 278 282 284 285 282 280 283 285 283 280 268 252 253 262 259 252 248 244 240 245 260 248 243 246 244 243 243
247 257 254 262 261 252 248 254 256 255 260 271 271 264 269 275 275 278 282 284 283 283 283 285 286 284 282 273 256 248 252 257 253 244 240 238 236 242 264 267 250 248 247 247
247 256 266 262 260 259 258 259 262 267 265 264 269 275 277 279 283 284 284 284 284 285 286 285 284 283 280 273 263 257 256 255 249 241 236 234 234 236 239 250 266 267 254 251
250 239 245 260 266 269 269 270 278 285 288 289 285 285 285 286 287 286 287 290 290 289 289 289 288 287 285 275 265 260 257 255 247 241 235 234 234 235 239 243 250 262 271 262
259 259 253 254 262 269 277 276 273 279 283 285 288 287 283 281 283 288 290 290 291 291 291 290 287 286 285 277 270 265 258 256 251 241 236 235 233 235 240 243 247 250 252 252
244 253 246 253 261 266 261 258 260 269 277 279 280 284 288 291 293 293 294 290 281 281 282 282 283 286 283 273 266 264 260 258 251 245 235 232 233 236 239 241 244 248 250 245
224 228 231 234 245 257 265 265 266 269 270 274 284 288 288 287 287 290 294 297 297 294 287 277 279 285 282 275 267 260 253 250 243 242 240 235 238 237 237 240 243 248 255 251
234 235 241 243 243 246 257 267 271 273 276 279 281 281 281 280 280 284 291 294 295 296 295 290 290 289 284 278 274 260 251 248 249 246 241 247 251 241 238 242 246 246 245 245
252 249 250 256 258 253 259 267 271 274 275 273 276 281 283 283 280 282 285 282 275 271 279 288 290 285 280 277 274 260 249 247 248 250 246 241 242 245 243 243 245 246 245 243
255 258 258 260 265 264 259 260 265 270 274 271 270 274 277 281 281 278 281 287 285 276 278 285 286 282 280 277 273 259 250 247 248 248 246 245 246 248 248 246 245 246 246 246
255 258 262 264 265 270 268 260 258 264 271 274 271 271 275 280 282 278 267 266 276 284 288 283 280 279 281 281 268 260 254 250 250 248 245 243 244 248 250 248 248 248 247 245
257 258 260 262 263 267 272 269 260 259 263 266 269 270 270 272 273 275 284 277 272 281 284 279 279 282 285 282 265 259 257 254 253 250 248 246 245 246 249 250 250 249 248 245
261 262 261 263 265 269 274 274 268 262 260 263 264 263 264 273 276 263 260 275 282 284 281 280 284 285 286 273 261 258 257 256 253 251 249 249 249 248 248 249 250 249 247 243
259 261 264 265 266 267 267 270 273 271 268 269 268 264 258 253 260 272 272 271 276 281 280 281 284 284 279 265 259 258 257 254 253 251 247 248 249 249 249 248 246 246 245 241
259 262 263 260 258 263 266 267 270 273 273 276 278 273 265 259 256 262 268 269 269 276 276 276 276 277 269 262 259 259 257 261 263 258 249 247 248 248 249 248 245 243 240 237
259 261 264 266 265 261 258 259 263 267 267 268 275 277 273 269 266 265 265 267 269 270 269 270 268 265 263 260 260 259 257 255 253 251 249 247 246 246 244 242 242 238 232 229
Height
1531 1528 1528 1526 1524 1524 1526 1526 1527 1518 1515 1507 1505 1503 1502 1501 1500 1499 1498 1497 1496 1495 1494 1492 1491 1490 1488 1487 1486 1485 1483 1482 1481 1480 1478 1477 1476 1475 1474 1473 1472 1471 1470 1468
1530 1525 1525 1523 1518 1517 1517 1516 1515 1513 1509 1502 1501 1501 1500 1499 1498 1496 1495 1494 1493 1492 1490 1489 1487 1485 1484 1482 1481 1480 1478 1477 1476 1475 1473 1472 1471 1470 1469 1468 1467 1466 1465 1463
1532 1527 1524 1519 1508 1508 1509 1506 1507 1507 1502 1499 1499 1498 1497 1496 1495 1494 1493 1492 1490 1489 1487 1485 1483 1481 1479 1477 1476 1474 1473 1472 1471 1469 1468 1467 1466 1464 1463 1462 1461 1460 1459 1458
1532 1529 1524 1506 1499 1499 1501 1499 1499 1497 1496 1496 1496 1495 1494 1494 1493 1492 1490 1489 1487 1485 1483 1481 1479 1477 1474 1472 1471 1469 1468 1466 1465 1464 1463 1461 1460 1459 1457 1456 1455 1454 1453 1453
1531 1529 1518 1503 1497 1496 1499 1497 1494 1494 1493 1493 1493 1493 1492 1491 1490 1489 1488 1486 1484 1482 1479 1476 1474 1472 1469 1467 1465 1463 1462 1460 1459 1458 1457 1456 1454 1453 1452 1451 1450 1449 1448 1447
1529 1523 1514 1499 1494 1492 1495 1497 1491 1490 1491 1491 1491 1494 1491 1488 1487 1486 1484 1482 1479 1477 1474 1471 1469 1466 1464 1461 1459 1457 1456 1455 1453 1452 1451 1450 1449 1448 1447 1445 1444 1443 1442 1441
1524 1520 1507 1495 1492 1493 1500 1495 1490 1489 1488 1489 1489 1489 1486 1484 1483 1481 1479 1477 1474 1471 1468 1466 1463 1461 1458 1456 1454 1452 1450 1449 1447 1446 1445 1444 1443 1442 1441 1440 1438 1437 1436 1435
1518 1517 1505 1489 1491 1493 1491 1488 1487 1487 1487 1486 1485 1483 1482 1480 1478 1475 1473 1471 1468 1465 1462 1460 1458 1455 1452 1450 1448 1447 1444 1443 1441 1440 1439 1438 1437 1436 1435 1434 1432 1431 1430 1429
1501 1495 1487 1485 1485 1485 1485 1485 1484 1484 1483 1482 1480 1478 1477 1474 1472 1470 1468 1465 1462 1460 1456 1454 1452 1450 1447 1445 1443 1440 1438 1437 1435 1434 1433 1432 1431 1430 1429 1428 1427 1425 1424 1423
1493 1486 1483 1482 1482 1482 1482 1482 1481 1480 1479 1478 1475 1473 1471 1469 1466 1464 1462 1459 1456 1454 1450 1448 1446 1444 1441 1439 1437 1434 1432 1431 1429 1428 1427 1426 1425 1424 1423 1422 1421 1420 1418 1417
1487 1482 1480 1478 1478 1478 1478 1477 1476 1475 1474 1472 1470 1467 1465 1462 1460 1458 1456 1453 1451 1448 1445 1442 1440 1437 1435 1433 1431 1428 1426 1425 1423 1422 1421 1419 1418 1418 1417 1416 1416 1414 1413 1412
1479 1476 1476 1474 1474 1474 1473 1472 1470 1469 1467 1466 1464 1462 1459 1457 1455 1452 1450 1447 1445 1442 1439 1436 1434 1431 1429 1427 1425 1423 1420 1419 1417 1416 1414 1413 1412 1411 1410 1410 1409 1409 1408 1407
1470 1470 1470 1469 1469 1468 1467 1466 1465 1463 1461 1460 1458 1456 1454 1451 1449 1447 1444 1442 1439 1436 1433 1430 1428 1425 1423 1421 1419 1416 1414 1413 1411 1409 1408 1407 1406 1405 1404 1403 1403 1402 1401 1401
1465 1466 1464 1463 1463 1462 1461 1460 1459 1457 1456 1454 1452 1451 1448 1446 1444 1441 1439 1436 1433 1430 1428 1425 1422 1419 1417 1415 1412 1410 1408 1406 1405 1403 1402 1401 1400 1399 1398 1397 1396 1395 1395 1395
1459 1459 1458 1457 1457 1456 1455 1454 1453 1451 1450 1449 1447 1445 1443 1441 1438 1436 1433 1431 1428 1425 1422 1419 1416 1413 1411 1408 1406 1403 1402 1400 1398 1397 1396 1395 1394 1393 1392 1391 1390 1389 1389 1388
1453 1453 1452 1452 1451 1451 1450 1449 1448 1447 1446 1444 1442 1440 1438 1436 1433 1431 1428 1425 1422 1418 1415 1412 1409 1407 1404 1402 1399 1397 1395 1394 1392 1391 1389 1388 1388 1387 1386 1385 1384 1383 1383 1382
1449 1447 1447 1447 1447 1446 1446 1445 1444 1443 1441 1439 1438 1435 1433 1431 1428 1425 1422 1419 1416 1413 1410 1407 1403 1401 1398 1395 1393 1390 1389 1387 1386 1384 1383 1382 1381 1381 1380 1379 1378 1377 1377 1377
1444 1444 1444 1443 1443 1442 1441 1441 1439 1438 1437 1435 1433 1430 1428 1425 1422 1419 1416 1413 1410 1407 1404 1401 1398 1394 1392 1389 1387 1384 1382 1381 1379 1378 1377 1376 1375 1375 1374 1373 1372 1372 1371 1371
1441 1440 1440 1439 1439 1438 1437 1436 1435 1434 1432 1430 1428 1425 1422 1420 1417 1414 1411 1407 1404 1400 1397 1395 1391 1388 1385 1383 1380 1378 1376 1374 1373 1372 1371 1370 1369 1368 1368 1367 1366 1366 1365 1365
1438 1437 1436 1436 1435 1434 1433 1432 1430 1428 1426 1424 1422 1419 1416 1413 1411 1408 1404 1401 1398 1394 1391 1388 1385 1382 1379 1376 1374 1372 1370 1368 1367 1366 1365 1364 1363 1362 1362 1361 1360 1360 1359 1359
1434 1433 1432 1431 1430 1429 1428 1426 1424 1422 1420 1418 1416 1412 1409 1406 1404 1401 1397 1393 1390 1388 1384 1381 1378 1375 1372 1370 1367 1365 1364 1362 1361 1359 1358 1357 1357 1356 1355 1355 1354 1354 1353 1353
1430 1429 1427 1426 1424 1423 1421 1420 1418 1415 1413 1410 1408 1405 1402 1398 1396 1393 1389 1386 1383 1380 1377 1374 1371 1368 1366 1363 1361 1359 1357 1356 1355 1353 1352 1351 1351 1350 1349 1349 1348 1348 1347 1347
1424 1423 1421 1420 1418 1416 1414 1412 1410 1408 1405 1402 1400 1397 1394 1391 1388 1385 1380 1378 1376 1373 1370 1367 1364 1362 1359 1357 1354 1352 1351 1349 1348 1347 1346 1345 1345 1344 1343 1343 1342 1342 1341 1341
1418 1416 1414 1412 1410 1408 1405 1403 1402 1399 1396 1394 1391 1388 1386 1382 1379 1376 1373 1370 1368 1365 1362 1359 1357 1355 1352 1350 1348 1346 1345 1343 1342 1341 1340 1339 1338 1338 1337 1337 1336 1336 1335 1335
1409 1408 1406 1404 1402 1399 1397 1394 1392 1389 1387 1384 1381 1379 1377 1374 1371 1367 1365 1362 1360 1357 1354 1352 1350 1348 1346 1343 1341 1340 1338 1337 1336 1335 1334 1333 1332 1332 1331 1331 1330 1330 1330 1329
1400 1398 1396 1394 1392 1390 1388 1385 1383 1380 1377 1374 1371 1369 1367 1365 1362 1359 1357 1354 1352 1349 1347 1345 1343 1341 1339 1337 1335 1333 1332 1331 1330 1329 1328 1327 1326 1326 1325 1325 1324 1324 1324 1324
1390 1388 1386 1384 1382 1380 1378 1376 1373 1370 1368 1366 1362 1360 1358 1356 1353 1351 1348 1346 1344 1341 1339 1337 1335 1333 1332 1330 1328 1327 1326 1324 1324 1323 1322 1321 1320 1320 1320 1319 1319 1319 1319 1319